Date String (YYYY-MM-DD hh:mm:ss) UTC,Instrument flags,absolute air pressure of the measurement (hPa),sample flow rate (lpm),inlet stack bypass flow (lpm),air temperature of the measurement (°C),ambient temperature measured by the external sensor (°C),aerosol sample conditioner tube jacket temperature (°C),OPC LED temperature (°C),internal box temperature (°C),relative humidity of the measurement (%),span deviation,mass concentration of particles derived from Lorenz-Mie calculation of OPC scattering (μg/m³),mass concentration of particles derived from Lorenz-Mie calculation of OPC scattering (μg/m³),mass concentration of particles derived from Lorenz-Mie calculation of OPC scattering (μg/m³)
DateTimeUTC,F1_M11,P_M11,Q1_M11,Q2_M11,T1_M11,T2_M11,T3_M11,T4_M11,T5_M11,U1_M11,ZSPAN_M11,X2_M11,X0_M11,X1_M11
2023-09-14 12:00:00,SystemResetWarning,0831.3,5.00,000.00,028.8,027.3,000.0,037.3,030.3,18.3,0000.0,0004.95,0010.18,0004.44
2023-09-14 12:01:00,SystemResetWarning,0831.3,5.00,000.00,028.8,027.3,000.0,037.3,030.3,18.2,0000.0,0004.93,0010.03,0004.43
2023-09-14 12:02:00,SystemResetWarning,0831.3,5.00,000.00,028.8,027.3,000.0,037.2,030.3,18.1,0000.0,0004.91,0009.94,0004.42
2023-09-14 12:03:00,SystemResetWarning,0831.3,4.99,000.00,028.8,027.3,000.0,037.2,030.3,17.9,0000.0,0004.89,0010.21,0004.41
2023-09-14 12:04:00,SystemResetWarning,0831.3,5.00,000.00,028.8,027.3,000.0,037.2,030.3,17.8,0000.0,0004.89,0010.40,0004.40
2023-09-14 12:05:00,SystemResetWarning,0831.3,5.00,000.00,028.8,027.3,000.0,037.2,030.3,17.6,0000.0,0004.86,0010.26,0004.38
2023-09-14 12:06:00,SystemResetWarning,0831.3,5.00,000.00,028.8,027.3,000.0,037.2,030.3,17.5,0000.0,0004.83,0010.04,0004.37
2023-09-14 12:07:00,SystemResetWarning,0831.3,4.99,000.00,028.8,027.3,000.0,037.2,030.3,17.5,0000.0,0004.81,0010.33,0004.36
2023-09-14 12:08:00,SystemResetWarning,0831.3,5.00,000.00,028.8,027.3,000.0,037.2,030.3,17.5,0000.0,0004.80,0010.41,0004.35
2023-09-14 12:09:00,SystemResetWarning,0831.3,5.00,000.00,028.7,027.3,000.0,037.2,030.3,17.7,0000.0,0004.83,0010.08,0004.36
2023-09-14 12:10:00,SystemResetWarning,0831.3,5.01,000.00,028.7,027.3,000.0,037.2,030.3,17.9,0000.0,0004.83,0009.59,0004.36
2023-09-14 12:11:00,SystemResetWarning,0831.4,5.01,000.00,028.7,027.3,000.0,037.2,030.3,17.7,0000.0,0004.86,0009.64,0004.36
2023-09-14 12:12:00,SystemResetWarning,0831.3,5.00,000.00,028.7,027.3,000.0,037.2,030.3,17.9,0000.0,0004.87,0009.65,0004.36
2023-09-14 12:13:00,SystemResetWarning,0831.4,5.01,000.00,028.7,027.2,000.0,037.2,030.3,18.2,0000.0,0004.87,0009.70,0004.36
2023-09-14 12:14:00,SystemResetWarning,0831.3,5.00,000.00,028.7,027.2,000.0,037.2,030.3,18.3,0000.0,0004.89,0009.40,0004.36
2023-09-14 12:15:00,SystemResetWarning,0831.4,4.99,000.00,028.7,027.2,000.0,037.2,030.2,18.4,0000.0,0004.90,0009.22,0004.37
2023-09-14 12:16:00,SystemResetWarning,0831.4,4.99,000.00,028.7,027.2,000.0,037.2,030.3,18.2,0000.0,0004.92,0009.27,0004.38
2023-09-14 12:17:00,SystemResetWarning,0831.4,5.00,000.00,028.7,027.2,000.0,037.2,030.3,18.3,0000.0,0004.92,0009.26,0004.39
2023-09-14 12:18:00,SystemResetWarning,0831.4,5.00,000.00,028.7,027.2,000.0,037.2,030.2,18.2,0000.0,0004.91,0008.85,0004.39
2023-09-14 12:19:00,SystemResetWarning,0831.4,5.02,000.00,028.7,027.2,000.0,037.2,030.2,18.2,0000.0,0004.90,0008.70,0004.40
2023-09-14 12:20:00,SystemResetWarning,0831.4,4.99,000.00,028.7,027.2,000.0,037.2,030.2,18.2,0000.0,0004.88,0009.24,0004.40
2023-09-14 12:21:00,SystemResetWarning,0831.4,5.00,000.00,028.7,027.2,000.0,037.2,030.2,18.2,0000.0,0004.89,0009.48,0004.40
2023-09-14 12:22:00,SystemResetWarning,0831.5,5.00,000.00,028.7,027.2,000.0,037.2,030.3,18.3,0000.0,0004.87,0009.10,0004.40
2023-09-14 12:23:00,SystemResetWarning,0831.5,4.99,000.00,028.7,027.2,000.0,037.2,030.3,18.1,0000.0,0004.88,0009.32,0004.41
2023-09-14 12:24:00,SystemResetWarning,0831.5,4.99,000.00,028.7,027.3,000.0,037.2,030.3,18.1,0000.0,0004.92,0009.52,0004.42
2023-09-14 12:25:00,SystemResetWarning,0831.5,5.00,000.00,028.7,027.3,000.0,037.2,030.3,18.0,0000.0,0004.95,0009.53,0004.41
2023-09-14 12:26:00,SystemResetWarning,0831.5,5.02,000.00,028.8,027.3,000.0,037.2,030.3,18.1,0000.0,0004.95,0009.56,0004.41
2023-09-14 12:27:00,SystemResetWarning,0831.5,5.01,000.00,028.8,027.3,000.0,037.2,030.3,18.2,0000.0,0004.98,0009.71,0004.42
2023-09-14 12:28:00,SystemResetWarning,0831.5,5.00,000.00,028.8,027.3,000.0,037.2,030.3,18.3,0000.0,0004.98,0009.96,0004.43
2023-09-14 12:29:00,SystemResetWarning,0831.5,5.00,000.00,028.8,027.3,000.0,037.2,030.3,18.3,0000.0,0004.99,0009.95,0004.44
2023-09-14 12:30:00,SystemResetWarning,0831.4,4.99,000.00,028.8,027.3,000.0,037.2,030.4,18.3,0000.0,0005.00,0009.87,0004.45
2023-09-14 12:31:00,SystemResetWarning,0831.5,5.00,000.00,028.8,027.3,000.0,037.2,030.4,18.4,0000.0,0005.01,0009.34,0004.46
2023-09-14 12:32:00,SystemResetWarning,0831.5,5.00,000.00,028.8,027.3,000.0,037.2,030.4,18.4,0000.0,0005.02,0009.04,0004.47
2023-09-14 12:33:00,SystemResetWarning,0831.4,5.00,000.00,028.8,027.3,000.0,037.2,030.4,18.4,0000.0,0005.02,0009.06,0004.49
2023-09-14 12:34:00,SystemResetWarning,0831.5,5.00,000.00,028.8,027.3,000.0,037.2,030.4,18.5,0000.0,0005.03,0008.97,0004.49
2023-09-14 12:35:00,SystemResetWarning,0831.5,5.01,000.00,028.8,027.3,000.0,037.2,030.4,18.4,0000.0,0005.01,0008.72,0004.50
2023-09-14 12:36:00,SystemResetWarning,0831.5,5.00,000.00,028.8,027.3,000.0,037.2,030.4,18.4,0000.0,0005.02,0008.77,0004.51
2023-09-14 12:37:00,SystemResetWarning,0831.6,5.01,000.00,028.8,027.4,000.0,037.2,030.4,18.5,0000.0,0005.03,0008.94,0004.53
2023-09-14 12:38:00,SystemResetWarning,0831.6,5.00,000.00,028.8,027.4,000.0,037.2,030.4,18.5,0000.0,0005.03,0008.98,0004.53
2023-09-14 12:39:00,SystemResetWarning,0831.6,4.99,000.00,028.9,027.4,000.0,037.2,030.4,18.5,0000.0,0005.03,0008.72,0004.53
2023-09-14 12:40:00,SystemResetWarning,0831.6,4.99,000.00,028.9,027.4,000.0,037.2,030.4,18.4,0000.0,0005.07,0008.93,0004.52
2023-09-14 12:41:00,SystemResetWarning,0831.6,5.00,000.00,028.9,027.4,000.0,037.2,030.4,18.3,0000.0,0005.07,0009.14,0004.52
2023-09-14 12:42:00,SystemResetWarning,0831.6,5.01,000.00,028.9,027.4,000.0,037.2,030.4,18.3,0000.0,0005.05,0009.02,0004.50
2023-09-14 12:43:00,SystemResetWarning,0831.6,5.01,000.00,028.9,027.4,000.0,037.2,030.4,18.5,0000.0,0005.02,0009.26,0004.49
2023-09-14 12:44:00,SystemResetWarning,0831.6,4.98,000.00,028.9,027.4,000.0,037.2,030.4,18.7,0000.0,0004.97,0009.04,0004.46
2023-09-14 12:45:00,SystemResetWarning,0831.6,5.00,000.00,028.9,027.4,000.0,037.2,030.4,18.8,0000.0,0004.94,0008.94,0004.45
2023-09-14 12:46:00,SystemResetWarning,0831.6,5.01,000.00,028.9,027.4,000.0,037.2,030.4,18.6,0000.0,0004.90,0008.87,0004.42
2023-09-14 12:47:00,SystemResetWarning,0831.7,5.01,000.00,028.9,027.4,000.0,037.2,030.4,19.1,0000.0,0004.83,0008.71,0004.39
2023-09-14 12:48:00,SystemResetWarning,0831.7,5.00,000.00,028.9,027.4,000.0,037.2,030.4,19.5,0000.0,0004.77,0008.38,0004.36
2023-09-14 12:49:00,SystemResetWarning,0831.7,5.00,000.00,028.9,027.4,000.0,037.3,030.4,19.3,0000.0,0004.71,0008.13,0004.32
2023-09-14 12:50:00,SystemResetWarning,0831.7,4.99,000.00,028.9,027.4,000.0,037.2,030.4,18.9,0000.0,0004.63,0008.12,0004.26
2023-09-14 12:51:00,SystemResetWarning,0831.9,4.99,000.00,028.9,027.4,000.0,037.3,030.4,18.9,0000.0,0004.55,0008.00,0004.21
2023-09-14 12:52:00,SystemResetWarning,0832.1,4.99,000.00,028.9,027.4,000.0,037.3,030.4,19.1,0000.0,0004.49,0008.29,0004.16
2023-09-14 12:53:00,SystemResetWarning,0832.0,5.01,000.00,028.9,027.4,000.0,037.3,030.4,18.9,0000.0,0004.43,0008.36,0004.11
2023-09-14 12:54:00,SystemResetWarning,0832.1,5.00,000.00,028.9,027.4,000.0,037.3,030.5,18.9,0000.0,0004.38,0008.05,0004.07
2023-09-14 12:55:00,SystemResetWarning,0831.9,5.00,000.00,028.9,027.4,000.0,037.3,030.5,19.0,0000.0,0004.37,0008.14,0004.04
2023-09-14 12:56:00,SystemResetWarning,0831.8,5.01,000.00,028.9,027.4,000.0,037.3,030.5,19.1,0000.0,0004.35,0008.18,0004.02
2023-09-14 12:57:00,SystemResetWarning,0831.9,5.00,000.00,028.9,027.4,000.0,037.3,030.5,19.3,0000.0,0004.33,0008.32,0003.99
2023-09-14 12:58:00,SystemResetWarning,0831.9,5.00,000.00,028.9,027.4,000.0,037.3,030.5,19.0,0000.0,0004.32,0008.43,0003.98
2023-09-14 12:59:00,SystemResetWarning,0831.9,5.00,000.00,028.9,027.4,000.0,037.3,030.4,19.0,0000.0,0004.30,0008.41,0003.96
